Location: Most
(50.5133°N, 13.6207°E)
Time: 01:21:46
(UTC+02:00)

ISS - Pass Details

Date: 26 September 2021
Orbit: 417 x 423 km, 51.6° (Epoch: 22 October)

Event Time Altitude Azimuth Distance (km) Brightness Sun altitude
Rises 19:20:10 0° 263° (W) 2,360 2.3 -4.9°
Reaches altitude 10° 19:22:16 10° 265° (W) 1,498 0.8 -5.2°
Maximum altitude 19:25:38 76° 352° (N) 436 -3.6 -5.8°
Drops below altitude 10° 19:29:00 10° 79° (ENE) 1,503 -1.6 -6.3°
Enters shadow 19:29:27 - 79° (E) 1,686 -1.3 -6.4°
